Location: Altmatt
(47.1333°N, 8.7000°E)
Time: 17:17:15
(UTC+00:00)

SPOT 1/Viking Rocket - Pass Details

Date: 13 July 2020
Orbit: 778 x 793 km, 98.5° (Epoch: 13 August)

Event Time Altitude Azimuth Distance (km) Brightness Sun altitude
Exits shadow 20:43:56 12° 169° (S) 2,203 5.3 -11.6°
Maximum altitude 20:48:46 80° 256° (WSW) 802 3.6 -12.1°
Drops below altitude 10° 20:53:59 10° 344° (NNW) 2,358 7.2 -12.6°
Sets 20:56:19 0° 346° (NNW) 3,294 8.2 -12.9°
